Skip Page Navigation
NASA JPL Caltech
NASA Logo - Jet Propulsion Laboratory + View the NASA Portal
+ Center for Near-Earth Object Studies
JPL Home Earth Solar System Stars & Galaxies Technology
JPL Solar System Dynamics
BODIES ORBITS EPHEMERIDES TOOLS PHYSICAL DATA DISCOVERY FAQ SITE MAP
JPL Small-Body Database Browser
Search: [ help ]  
118504 (2000 DS72)
Classification: Main-belt Asteroid          SPK-ID: 2118504
Ephemeris | Orbit Diagram | Orbital Elements | Mission Design | Physical Parameters | Discovery Circumstances | Close-Approach Data ]

[ show orbit diagram ]
Orbital Elements at Epoch 2459000.5 (2020-May-31.0) TDB
Reference: JPL 16 (heliocentric ecliptic J2000)
 Element Value Uncertainty (1-sigma)   Units 
e .05601656851430697 4.2678e-08  
a 2.320970661276533 1.1839e-08 au
q 2.190957849209439 1.0317e-07 au
i 6.785336953773172 6.2279e-06 deg
node 159.4462626356137 3.6997e-05 deg
peri 314.9584690479832 6.5407e-05 deg
M 309.7360999931699 5.4296e-05 deg
tp 2459180.825267409364
(2020-Nov-27.32526741)
0.00019508 TDB
period 1291.525254875759
3.54
9.8822e-06
2.706e-08
d
yr
n .2787401939225966 2.1328e-09 deg/d
Q 2.450983473343626 1.2503e-08 au
  Orbit Determination Parameters
   # obs. used (total)      392  
   data-arc span      9694 days (26.54 yr)  
   first obs. used      1993-03-19  
   last obs. used      2019-10-03  
   planetary ephem.      DE431  
   SB-pert. ephem.      SB431-N16  
   condition code      0  
   norm. resid. RMS      .56407  
   source      ORB  
   producer      Otto Matic  
   solution date      2019-Nov-07 14:00:10  

Additional Information
 Earth MOID = 1.21238 au 
 Jupiter MOID = 2.58151 au 
 T_jup = 3.566 
[ show covariance matrix ]

Ephemeris | Orbit Diagram | Orbital Elements | Mission Design | Physical Parameters | Discovery Circumstances | Close-Approach Data ]

Physical Parameter Table
Parameter Symbol Value Units Sigma Reference Notes
absolute magnitude H 16.6   n/a MPO493676  

118504 (2000 DS72)          Discovered 2000-Feb-29 by LINEAR at Socorro
Reference: 20051116/Numbers.arcLast Updated: 2005-11-21

[ show close-approach data ]
Alternate Designations
 2000 DS72 = 2005 QR113 
Ephemeris | Orbit Diagram | Orbital Elements | Mission Design | Physical Parameters | Discovery Circumstances | Close-Approach Data ]
ABOUT SSD CREDITS/AWARDS PRIVACY/COPYRIGHT GLOSSARY LINKS
FirstGov 2020-Oct-21 10:11 UT
(server date/time)  
NASA Home Page
Site Manager:   Ryan S. Park
Webmaster  Alan B. Chamberlin